Location: Payette
(44.0782°N, 116.9338°W)
Time: 16:20:50
(UTC-06:00)

N. Korean satellite - Pass Details

Date: 25 March 2019
Orbit: 457 x 508 km, 97.2° (Epoch: 21 April)

Event Time Altitude Azimuth Distance (km) Brightness Sun altitude
Rises 06:50:33 0° 34° (NE) 2,535 11.0 -10.0°
Reaches altitude 10° 06:53:50 10° 68° (ENE) 1,663 10.8 -9.4°
Maximum altitude 06:55:11 12° 91° (E) 1,559 10.6 -9.2°
Drops below altitude 10° 06:56:32 10° 113° (ESE) 1,669 10.2 -8.9°
Sets 06:59:50 0° 146° (SSE) 2,556 10.5 -8.4°
